Location: ?????????
(54.7630°N, 39.4991°E)
Time: 21:35:56
(UTC+00:00)

NOSS 3-1 (C) - Pass Details

Date: 14 April 2026
Orbit: 618 x 1583 km, 63.4° (Epoch: 10 January)

Event Time Altitude Azimuth Distance (km) Brightness Sun altitude
Rises 18:11:09 0° 304° (NW) 3,453 8.3 -14.2°
Reaches altitude 10° 18:13:28 10° 309° (NW) 2,634 7.2 -14.5°
Maximum altitude 18:19:37 57° 28° (NNE) 1,273 4.2 -15.1°
Enters shadow 18:26:02 16° 104° (ESE) 2,843 5.4 -15.8°
